TimeEST,TemperatureF,Dew PointF,Humidity,Sea Level PressureIn,VisibilityMPH,Wind Direction,Wind SpeedMPH,Gust SpeedMPH,PrecipitationIn,Events,Conditions,WindDirDegrees,DateUTC
12:52 AM,32.0,26.1,79,30.32,10.0,East,9.2,-,N/A,,Partly Cloudy,80,2013-11-20 05:52:00
1:52 AM,33.1,25.0,72,30.31,10.0,East,8.1,-,N/A,,Scattered Clouds,80,2013-11-20 06:52:00
2:52 AM,33.1,25.0,72,30.31,10.0,East,9.2,-,N/A,,Scattered Clouds,80,2013-11-20 07:52:00
3:52 AM,30.0,24.1,79,30.32,10.0,East,5.8,-,N/A,,Clear,80,2013-11-20 08:52:00
4:52 AM,30.0,24.1,79,30.32,10.0,ENE,5.8,-,N/A,,Clear,70,2013-11-20 09:52:00
5:52 AM,32.0,24.1,73,30.32,10.0,ENE,9.2,-,N/A,,Clear,60,2013-11-20 10:52:00
6:52 AM,30.9,24.1,76,30.32,10.0,ENE,8.1,-,N/A,,Clear,70,2013-11-20 11:52:00
7:52 AM,30.9,24.1,76,30.32,10.0,ENE,9.2,-,N/A,,Scattered Clouds,70,2013-11-20 12:52:00
8:52 AM,33.1,26.1,75,30.32,10.0,East,9.2,-,N/A,,Mostly Cloudy,100,2013-11-20 13:52:00
9:52 AM,36.0,26.1,67,30.33,10.0,SE,9.2,-,N/A,,Mostly Cloudy,130,2013-11-20 14:52:00
10:52 AM,39.0,27.0,62,30.32,10.0,SE,10.4,-,N/A,,Overcast,140,2013-11-20 15:52:00
11:52 AM,43.0,30.0,60,30.30,10.0,ESE,8.1,-,N/A,,Mostly Cloudy,110,2013-11-20 16:52:00
12:52 PM,46.0,30.0,54,30.27,10.0,SE,8.1,-,N/A,,Mostly Cloudy,130,2013-11-20 17:52:00
1:52 PM,48.9,30.9,50,30.25,10.0,SSE,11.5,-,N/A,,Mostly Cloudy,160,2013-11-20 18:52:00
2:52 PM,50.0,30.9,48,30.23,10.0,South,8.1,-,N/A,,Scattered Clouds,180,2013-11-20 19:52:00
3:52 PM,51.1,30.9,46,30.23,10.0,SSE,10.4,-,N/A,,Scattered Clouds,160,2013-11-20 20:52:00
4:52 PM,46.9,30.9,54,30.23,10.0,SE,9.2,-,N/A,,Scattered Clouds,130,2013-11-20 21:52:00
5:52 PM,46.0,30.0,54,30.24,10.0,ESE,5.8,-,N/A,,Mostly Cloudy,120,2013-11-20 22:52:00
6:52 PM,46.0,30.0,54,30.24,10.0,ESE,3.5,-,N/A,,Overcast,120,2013-11-20 23:52:00
7:52 PM,44.1,30.0,58,30.24,10.0,ESE,4.6,-,N/A,,Scattered Clouds,120,2013-11-21 00:52:00
8:52 PM,43.0,30.0,60,30.25,10.0,ESE,3.5,-,N/A,,Scattered Clouds,120,2013-11-21 01:52:00
9:52 PM,43.0,30.9,62,30.24,10.0,ESE,8.1,-,N/A,,Overcast,120,2013-11-21 02:52:00
10:52 PM,42.1,30.9,65,30.24,10.0,SE,10.4,-,N/A,,Mostly Cloudy,130,2013-11-21 03:52:00
11:52 PM,43.0,30.9,62,30.24,10.0,SSE,8.1,-,N/A,,Overcast,150,2013-11-21 04:52:00